Location: Yoder Observing Site
(32.2942°N, 83.9813°W)
Time: 18:43:55
(UTC-04:00)

Hubble Space Telescope - Visible Passes

Search period start: 23 April 2018 00:00
Search period end: 03 May 2018 00:00
Orbit: 537 x 541 km, 28.5° (Epoch: 22 April)

Date Brightness Start Highest point End Pass type
(mag) Time Alt. Az. Time Alt. Az. Time Alt. Az.
23 Apr 3.2 21:47:40 10° SSW 21:48:00 11° SSW 21:48:00 11° SSW visible
24 Apr 2.4 21:36:52 10° SSW 21:39:01 19° S 21:39:01 19° S visible
25 Apr 1.9 21:26:12 10° SW 21:29:35 25° SSE 21:29:52 24° SSE visible
26 Apr 1.8 21:15:37 10° SW 21:19:12 29° SSE 21:20:37 23° SE visible
27 Apr 1.6 21:05:06 10° SW 21:08:50 33° SSE 21:11:13 18° ESE visible
27 Apr 3.3 22:45:47 10° WSW 22:46:35 15° WSW 22:46:35 15° WSW visible
28 Apr 1.4 20:54:38 10° WSW 20:58:29 38° SSE 21:01:42 14° ESE visible
28 Apr 2.7 22:35:27 10° WSW 22:37:05 22° WSW 22:37:05 22° WSW visible
29 Apr 1.3 20:44:13 10° WSW 20:48:08 42° S 20:52:03 10° E visible
29 Apr 2.2 22:25:08 10° WSW 22:27:28 30° WSW 22:27:28 30° WSW visible
30 Apr 1.7 22:14:49 10° W 22:17:47 37° SW 22:17:47 37° SW visible
01 May 1.5 22:04:31 10° W 22:08:03 40° SSW 22:08:03 40° SSW visible
02 May 1.5 21:54:15 10° W 21:58:05 37° SSW 21:58:17 37° S visible
